Weather in Si贸fok

Hungary     46藲54鈥24鈥砃   18藲03鈥33鈥矱
temp.,
掳C
wind,
m/s
gust,
m/s
humid.,
%
clouds,
%
prec.,
mm/h
press.,
hPa
HPBL,
m
17 january, sun
sun1701:00鈭3藲nnw61281100 0.2 10191034
04:00鈭3藲nw5984100 0.2 1017921
07:00鈭3藲nw61086100 0.6 1017808
10:00鈭2藲nnw6973100 0.2 1018816
13:00鈭1藲nnw566288 0.2 1018872
16:00鈭3藲nnw467431 0.0 1019486
19:00鈭4藲n478036 0.0 1021339
22:00鈭5藲nnw36771 0.0 1023248
18 january, mon
mon1801:00鈭6藲nnw37731 0.0 1024308
04:00鈭6藲wnw24780 0.0 1024179
07:00鈭6藲wnw47840 0.0 1024280
10:00鈭3藲w587910 0.0 1024529
13:00鈭1藲w567341 0.0 1023559
16:00鈭1藲w4692100 0.2 1023353
19:00鈭1藲w5118297 0.4 1023478
22:000藲nw5148680 0.0 1024540
19 january, tue
tue1901:000藲nw6167790 0.0 1024633
04:00鈭1藲wsw3383100 0.0 1023110
07:000藲wsw4577100 0.0 1023164
10:00+1藲sw61073100 0.0 1022461
13:00+2藲sw5873100 0.0 1020394
16:00+2藲sw6107299 0.0 1018507
19:00+3藲sw6127499 0.0 1018543
22:00+2藲wsw51080100 0.0 1017363
20 january, wed
wed2001:00+2藲wsw61077100 0.0 1018339
04:00+3藲wsw71380100 0.0 1017434
07:00+3藲wsw61582100 0.0 1018472
10:00+6藲wsw9177462 0.0 1018773
13:00+8藲sw10157175 0.0 1016864
16:00+7藲sw815803 0.0 1015785
19:00+7藲sw916821 0.0 1015829
22:00+7藲ssw9178324 0.0 1014973
21 january, thu
thu2101:00+7藲ssw11188050 0.0 1013999
04:00+7藲ssw11197692 0.0 10111002
07:00+8藲ssw11207390 0.0 10111060
10:00+10藲ssw13216954 0.0 10111519
13:00+11藲sw11196761 0.0 10101596
16:00+11藲sw11186972 0.0 10101211
19:00+10藲ssw10177481 0.0 1011880
22:00+9藲ssw7157876 0.0 1011665